THOR ABLESTAR DEB, 177

Orbit data source: Space-Track

THOR ABLESTAR DEB, 177 is space debris in LEO originally from a launch on Thu, 29 Jun 1961 UTC launched from the Air Force Eastern Test Range (AFETR). Debris objects in space refer to the collection of defunct objects orbiting the Earth. Examples of debris include non-operational satellites, rocket bodies, and fragments generated from explosions, collisions, or faulty payload assembly.

Loading next visibility...
Identifier
177, 1961-015BB
Orbit
LEO
Country
Flag of USUS
Related business
Manufacturer
Unknown
Mission
Spacecraft
Bus & Motor
Unknown
Mass
Unknown
Launch date (UTC)
1961-06-29 (64 years ago)
Launch vehicle
Unknown
Launch site
Air Force Eastern Test Range (AFETR)
Object type
Payload
Rocket body
Debris
Shape & HBR
Unknown
Radar Cross Section
Medium (>0.1 m² and <1 m²)

Expand to show TLE details & history
Last TLE update: 6 hours ago

TLE from 6 hours ago
0 THOR ABLESTAR DEB
1 00177U 61015BB  25260.95930168  .00000297  00000-0  18524-3 0  9995
2 00177  66.6517 178.9022 0114507 279.7678  79.0496 14.14669233302651
Epoch: 2025-09-17T23:01Z
TLE epoch observation values (Epoch: 2025-09-17T23:01:23.665Z)
Latitude
-0.00002°
Longitude
-163.57418°
Altitude
830.732 km
Speed
7.446 km/s
True Right ascension
11h 55m 36s
True Declination
0° 00' 00"
Sunlit
Object was in daylight at epoch
Visualization orbit readout
Latitude
Unknown
Longitude
Unknown
Altitude
Unknown
Speed
Unknown
Apparent Right ascension
Unknown
Apparent Declination
Unknown
Sunlit
N/A
Visualization observer readout
Local Sidereal Time
22:18:18
Azimuth
Unknown
Elevation
Unknown
Doppler factor
Unknown
Orbital elements
Apogee altitude
924.503 km
Perigee altitude
759.156 km
Semi-major axis
7,219.967 km
Eccentricity
0.01145
Inclination
66.6517°
RAAN
178.9022°
Arg. of periapsis
279.7678°
True anomaly
80.34126°
Mean anomaly
79.0496°
Eccentric anomaly
79.69509°
Mean motion
3.53786 °/min
Orbital period
101.76 mins
BSTAR
0.00018524
Loading maneuver chart data...
Computing Atmospheric mass density...

Documentation

Showing up to 5 results
|